CAPE
23 92 167 33 66 189 167 123 66 109 93 154 86 312 131 180 306 6 0 0 0 2 109 216 797 1191 1251 1670 1793 1754 1619 1822 1654 1709 1603 1615 1619 1457 1469 1648 1706 1706 1641 1629 1588 1362 1318 1434 1323
23 272 295 330 107 59 97 96 110 114 185 134 179 190 156 10 95 135 2 0 1 9 109 156 1018 1130 1561 1792 1820 1727 1636 1656 1805 1655 1637 1597 1578 1547 1628 1697 1500 1711 1645 1541 1449 1402 1364 1162 1089
108 224 318 310 522 41 95 145 252 195 196 187 310 395 374 51 116 235 14 72 23 75 447 593 978 1259 1688 1805 1731 1632 1578 1721 1679 1639 1636 1484 1537 1335 1511 1447 1672 1619 1707 1639 1323 1389 1272 1076 914
288 207 77 72 29 107 173 134 425 277 272 265 308 230 204 137 100 214 50 19 243 299 395 674 1258 1476 1592 1568 1572 1521 1512 1718 1702 1533 1424 1498 1652 1591 1741 1534 1754 1463 1575 1515 1521 1483 1358 1197 1037
309 220 372 193 117 134 180 353 393 226 317 275 448 254 192 109 130 162 101 260 57 470 608 835 1309 1638 1533 1487 1555 1543 1619 1779 1571 1494 1436 1509 1562 1595 1846 1831 1647 1522 1475 1476 1402 1408 1478 1461 1385
908 774 210 66 75 127 179 253 262 379 372 293 451 186 258 191 115 185 178 61 385 425 169 864 1432 1406 1441 1396 1577 1648 1686 1685 1668 1598 1547 1520 1552 1635 1770 1829 1727 1505 1456 1416 1362 1290 1473 1415 1279
687 376 90 54 43 59 163 218 226 263 298 347 261 440 242 216 139 107 144 314 356 155 116 521 776 1105 1454 1516 1491 1534 1611 1684 1787 1714 1625 1501 1434 1389 1440 1556 1672 1617 1570 1556 1464 1316 1262 1356 1176
684 355 150 115 0 43 19 84 78 266 288 318 398 337 227 232 78 118 197 225 339 168 8 63 282 588 717 827 1372 1461 1582 1672 1803 1798 1721 1578 1438 1251 835 964 1367 1445 1343 1275 1469 1150 942 1098 1097
501 391 258 31 18 59 39 2 35 122 241 298 285 416 362 202 171 207 167 231 255 151 9 1 144 411 628 594 1088 1417 1530 1625 1535 1278 1133 1236 1504 1630 1533 1276 1069 1154 976 964 939 797 1031 1030 1104
211 72 220 51 20 53 120 23 0 82 146 238 378 556 346 358 209 259 269 246 338 115 34 28 129 226 368 211 641 604 488 439 714 974 893 1067 1459 1317 1365 725 875 1142 271 546 364 580 938 1090 786
172 97 85 19 6 146 114 95 33 40 90 233 519 562 427 457 372 294 354 326 368 158 93 112 143 195 176 218 166 304 155 336 775 1239 1405 1266 1203 1358 710 723 647 939 187 511 780 826 1193 102 234
31 108 60 24 1 21 117 153 182 68 33 222 462 604 562 478 480 496 540 529 492 296 90 106 184 204 154 323 195 213 181 285 320 727 1586 1517 1230 1155 1116 1210 1129 1074 814 1100 835 869 887 928 413
7 60 43 42 7 16 41 247 335 286 51 96 470 630 657 629 600 612 583 600 610 299 146 105 191 394 375 458 185 249 188 162 142 481 1119 1213 1187 1154 1268 1240 1159 1141 1078 1144 960 795 815 722 306
23 19 49 8 10 1 0 119 232 495 293 377 409 564 629 678 695 725 612 530 548 348 199 174 203 407 580 509 471 214 263 305 228 198 525 1349 1187 1230 1227 1067 1087 897 1314 963 1027 1023 854 673 281
28 0 1 2 0 0 0 38 150 377 582 527 499 526 609 729 692 631 544 466 438 392 277 272 315 476 559 620 713 598 406 330 216 238 372 1014 1239 1617 1586 1285 954 1127 1522 1303 1174 1104 1060 180 69
0 0 0 0 0 0 0 21 34 164 554 720 623 465 491 618 673 612 522 469 365 351 366 342 293 435 649 623 780 666 430 320 252 116 231 867 1297 1894 1967 1418 977 1395 1316 716 879 409 249 235 20
0 0 0 0 0 0 0 0 14 94 314 600 748 614 425 492 569 567 499 425 382 382 367 341 333 293 546 816 883 803 571 442 235 62 82 951 1132 1468 2037 1094 982 1602 1295 789 389 442 258 16 27
0 0 0 0 32 0 0 0 3 61 229 371 746 760 587 430 448 501 465 381 343 340 373 506 501 681 905 936 1139 798 487 447 211 33 43 1050 1170 1404 1923 1576 1622 1293 1292 957 963 675 91 97 4
0 0 0 24 40 2 9 38 4 63 146 248 619 783 719 581 388 350 398 315 266 292 400 643 801 998 1083 1023 850 630 400 352 70 22 108 547 982 1451 1896 1779 1870 1341 1458 1302 1003 884 404 148 3
0 0 0 0 32 0 27 28 33 39 88 179 497 681 756 766 604 328 349 232 234 475 699 1053 1229 1549 1429 1154 1074 679 522 101 15 0 299 567 1155 1598 2019 1889 1462 1625 1200 1331 1573 935 645 8 0
0 0 0 0 1 10 0 5 11 23 56 133 363 718 649 806 802 520 325 267 260 501 929 1238 1504 1702 1644 1359 1298 1008 588 260 44 49 219 803 1515 1704 2297 1979 1313 1701 1736 1435 1725 1161 430 133 0
0 0 0 0 0 3 0 0 0 1 14 88 168 613 668 708 830 769 387 315 275 414 749 1318 1743 1813 1867 1732 1099 945 476 136 58 134 146 778 1663 1680 1984 1425 1359 1828 1400 1429 1770 1327 953 189 0
0 0 0 0 0 0 0 1 1 8 7 25 61 340 502 672 846 847 717 331 281 345 560 1009 1839 1990 1769 1845 1453 1035 816 136 120 139 325 811 1756 1822 1520 2001 1494 1821 2098 1499 1437 1745 1470 523 66
0 0 0 0 0 0 0 0 0 1 9 19 31 64 213 370 711 898 894 567 326 307 462 935 1776 2200 2215 2314 1664 1825 977 660 228 190 391 729 933 1697 2011 1788 2285 2041 2161 1691 2126 2162 1891 1305 183
0 0 0 0 0 0 0 0 0 0 0 4 5 20 46 180 524 848 956 849 568 427 571 881 1620 2216 2456 2521 2233 1929 1989 1523 1659 1067 460 628 684 611 1507 1952 1914 1894 2441 2001 2001 2549 2028 1722 1005
0 0 0 0 0 0 0 0 0 0 0 0 16 13 21 67 533 798 974 1073 925 728 889 1052 1614 2301 2568 2428 2436 2293 2436 1928 1470 1374 907 802 703 574 906 2171 2019 2096 2182 2280 2351 2375 2192 1667 1488
0 0 0 0 0 0 0 0 0 0 0 0 0 0 5 42 331 613 939 1138 1237 1024 1200 1270 1556 2158 2547 2306 2522 2651 2632 2365 1846 1762 1825 1806 1390 783 1261 1946 2240 2142 2156 2290 2390 2029 2438 1704 1545
0 0 0 0 0 0 0 0 0 0 0 0 0 0 0 1 163 539 831 1091 1341 1261 1303 1474 1674 2178 2347 2161 2415 2592 2819 2853 2423 2365 2469 1937 1940 1782 1842 1499 1815 2155 2228 2318 2530 2012 2226 2126 1234
0 0 0 0 0 0 0 0 0 0 0 0 0 0 0 0 45 403 825 1019 1263 1358 1338 1516 1749 2128 2442 2360 2378 2396 2641 2744 2883 2410 2622 2561 2583 2647 1846 2288 2029 2171 2305 2388 2693 2295 2011 2268 1983
0 0 0 0 0 0 0 0 0 0 0 0 0 0 0 0 7 335 807 819 955 1267 1400 1560 1712 1787 2452 2521 2457 2459 2567 2671 2710 2853 2484 2813 2806 2655 2833 2499 2554 2424 2407 2443 2653 2622 1496 2244 2238
CIN
-93 -17 -1 -7 -7 -29 -8 -6 -13 -4 -8 -3 -13 -6 -47 -21 -1 -22 0 -147 0 -83 -55 -8 -3 0 0 0 0 0 0 0 0 0 0 -1 -1 0 0 0 0 0 0 0 0 -2 -1 0 0
-105 -2 -1 -1 -55 -7 -6 -3 -5 -8 -3 -3 -3 -3 -4 -61 -21 -9 0 0 -49 -104 -17 -13 -4 0 0 0 0 0 0 0 0 0 -2 -2 -2 0 0 0 -2 0 0 0 -4 -7 -3 -13 -9
-72 -19 -4 -2 -3 -128 -9 -4 -3 -3 -6 -5 -2 -3 -2 -50 -10 -1 -10 -9 -44 -41 -4 -5 -2 -1 0 0 0 0 0 0 0 0 -1 -2 -2 -6 -1 -1 0 -1 0 0 -5 -6 -12 -15 -14
-75 -36 -26 -45 -42 -26 -7 -20 -1 -3 -4 -6 -2 -10 -21 -26 -23 -3 -7 -13 -2 -8 0 -28 0 0 0 0 0 -1 -1 0 0 0 0 0 -2 -3 0 -6 0 -15 -4 -5 -12 -12 -11 -14 -20
-42 -22 -1 -56 -2 -2 -4 -2 -2 -17 -3 -2 -3 -13 -26 -21 -9 -5 -5 -2 -22 -1 -2 -1 0 0 0 0 0 0 0 0 0 0 0 0 0 -1 0 -3 -7 -12 -11 -10 -12 -13 -11 -13 -9
-1 -7 -21 -22 -1 -6 -6 -2 -8 -3 -1 -7 -8 -43 -12 -32 -23 -4 -1 -8 -3 -6 -3 -1 0 -2 0 0 0 0 0 0 0 0 0 0 -1 -1 0 0 -2 -14 -17 -17 -15 -16 -16 -19 -21
-19 -16 -23 -11 -2 -3 -4 -2 -7 -2 -3 -2 -22 -30 -58 -48 -30 -11 -3 -3 -3 -2 -2 -2 -2 0 0 0 0 0 0 0 0 0 0 -4 -11 -19 -19 -14 -8 -16 -19 -18 -18 -22 -24 -27 -28
-2 -7 -21 -15 -2 -4 -28 -10 -5 -2 -5 -12 -12 -81 -106 -71 -78 -22 -3 -4 -4 -3 -4 -25 -13 -1 -2 -6 0 0 0 0 0 0 -3 -16 -25 -34 -36 -37 -27 -25 -28 -29 -22 -33 -38 -41 -44
-21 -4 -3 -4 -18 -8 -4 -2 -18 -5 -32 -11 -12 -64 -92 -87 -51 -13 -19 -11 -22 -3 -1 -1 -8 -2 -1 -1 -1 -1 0 -1 -10 -20 -41 -19 -5 -4 -12 -24 -30 -34 -40 -34 -34 -41 -45 -38 -48
-21 -121 -63 -6 -5 -18 -4 -3 0 -3 -4 -15 -3 -25 -80 -59 -59 -30 -24 -23 -3 -7 -4 -2 -4 -16 -1 -3 -15 -9 -12 -12 -7 -7 -35 -38 -8 -7 -3 -37 -41 -35 -61 -45 -41 -40 -30 -37 -19
-3 -29 -59 -15 -7 -5 -11 -3 -2 -5 -8 -2 -15 -57 -75 -54 -36 -38 -26 -25 -3 -5 -7 -3 -3 -4 -4 -4 -19 -1 -14 -2 -2 -1 -1 -11 -4 -4 -28 -22 -18 -18 -47 -26 -34 -19 -11 -16 -4
-34 -6 -50 -6 0 -4 -11 -16 -10 -8 -5 -6 -36 -48 -64 -58 -24 -24 -21 -13 -3 -3 -7 -6 -3 -8 -2 -2 0 -1 -3 -2 -1 -2 -4 -6 -8 -2 -25 -9 -3 -4 -6 -5 -26 -8 -4 -19 -16
-21 -9 -10 -11 -4 -3 -10 -3 -1 -4 -19 -29 -41 -60 -33 -25 -11 -2 -3 -3 -4 -3 -6 -7 -6 -3 -2 -2 -2 -4 -3 -2 -2 -1 -2 -1 -11 -6 -9 -2 0 -4 -10 -4 -8 -1 -4 -5 -19
-6 -15 -7 -3 -3 -1 0 -15 -6 -4 -5 -18 -46 -65 -46 -18 -2 -2 -2 -3 -5 -2 -5 -7 -13 -12 -3 -2 -1 -3 -2 -3 -2 -3 -2 -9 -2 -7 -2 -2 -3 -8 -15 -18 -3 -5 -11 -19 -14
-5 0 -4 -1 0 0 0 -4 -7 -3 -4 -24 -43 -57 -53 -27 -2 -1 -3 -3 -4 -3 -3 -8 -7 -11 -15 -8 -3 -2 -1 0 -2 -2 -4 -3 -8 -6 -4 -4 -12 -3 -7 -4 -8 -2 -6 -20 -38
0 0 0 0 0 0 0 -4 -4 -7 -3 -7 -34 -57 -65 -47 -23 -13 -9 -5 -6 -3 -4 -7 -9 -9 -15 -17 -8 -1 -2 -2 -2 -1 -5 -14 -10 -5 -1 -1 -3 -3 -6 -1 -4 -1 -2 -6 -2
0 0 0 -1 0 0 0 0 -18 -9 -2 -3 -5 -36 -62 -63 -40 -37 -23 -19 -6 -11 -12 -17 -20 -21 -21 -12 -6 -6 -1 -5 -2 -17 -13 -9 -13 -11 -5 -27 -19 -5 -6 -5 -1 -8 -5 -6 -3
0 0 0 -3 -6 0 0 0 -32 -4 -5 -3 -6 -13 -48 -65 -66 -51 -35 -35 -9 -17 -26 -19 -20 -5 -6 -5 -3 -4 -7 -15 -17 -38 -42 -3 -7 -7 -2 -3 -3 -6 -3 -9 -10 -13 -3 -4 -1
0 0 0 -7 -8 -17 -9 -7 -6 -6 -4 -5 -5 -18 -42 -54 -48 -45 -44 -50 -43 -30 -35 -34 -19 -10 -5 -5 -14 -13 -29 -28 -66 -64 -36 -3 -2 -1 0 -3 -2 -6 -3 -5 -4 -2 -8 -5 -1
0 0 0 0 -9 -3 -4 -7 -7 -9 -3 -3 -4 -22 -31 -19 -26 -60 -69 -60 -64 -36 -31 -21 -12 -3 -6 -9 -9 -10 -14 -39 -36 0 -21 -21 -2 -1 0 -1 -6 -5 -6 -16 -7 -11 -10 -2 0
0 0 0 0 -6 -6 -1 -8 -11 -10 -4 -4 -5 -4 -16 -24 -36 -82 -89 -88 -77 -46 -28 -26 -17 -6 -12 -5 -3 -5 -13 -40 -98 -72 -36 -10 0 -1 0 -1 -7 -1 -4 -10 -2 -3 -5 -3 0
0 0 0 0 0 -6 0 0 0 -2 -6 -4 -8 -2 -6 -13 -20 -52 -86 -90 -87 -85 -63 -25 -15 -8 -10 -5 -12 -21 -66 -93 -97 -63 -48 -3 -1 0 0 -1 -4 -1 -4 -15 -2 0 -3 -26 0
0 0 0 0 0 0 0 -6 -9 -8 -6 -7 -8 -3 -6 -4 -10 -27 -85 -85 -93 -90 -91 -65 -26 -11 -8 -13 -14 -32 -41 -87 -95 -76 -43 -7 -5 -1 0 -1 -1 -1 -2 -2 -16 -1 -10 -18 -39
0 0 0 0 0 0 0 0 0 -1 -5 -7 -5 -5 -7 -4 -9 -38 -59 -70 -100 -112 -81 -48 -15 -3 -1 0 -36 -13 -68 -58 -72 -87 -32 -10 -3 -1 -1 -1 -1 -3 -1 -1 -1 -1 0 -7 -70
0 0 0 0 0 0 0 0 0 0 0 -6 -6 -5 -5 -6 -15 -44 -40 -71 -86 -107 -103 -70 -49 -27 -17 -1 -12 -26 -13 -33 -4 -16 -49 -14 -12 -29 -3 -6 -3 -3 0 -1 -1 0 0 -14 -37
0 0 0 0 0 0 0 0 0 0 0 0 -3 -8 -4 -4 -21 -21 -49 -57 -79 -96 -108 -102 -74 -44 -17 -27 -20 -25 -13 -20 -40 -22 -22 -40 -16 -28 -4 -18 -4 -1 -1 -1 -1 0 -2 -26 -41
0 0 0 0 0 0 0 0 0 0 0 0 0 0 -5 -14 -11 -32 -42 -60 -72 -94 -109 -109 -111 -120 -80 -86 -48 -27 -30 -30 -29 -25 -15 -4 -16 -15 -3 -3 -3 0 -1 -1 -1 -1 -2 -19 -47
0 0 0 0 0 0 0 0 0 0 0 0 0 0 0 -1 -23 -31 -34 -48 -68 -92 -122 -133 -131 -161 -161 -128 -112 -88 -57 -45 -41 -18 -7 -18 -3 -8 -3 -9 -1 -4 0 0 -1 -2 -1 -18 -63
0 0 0 0 0 0 0 0 0 0 0 0 0 0 0 0 -41 -30 -34 -37 -76 -98 -113 -146 -151 -145 -139 -138 -117 -106 -87 -65 -44 -42 -24 -22 -18 -1 -21 -4 -13 -13 -6 -1 -1 -1 -2 -17 -30
0 0 0 0 0 0 0 0 0 0 0 0 0 0 0 0 -75 -28 -24 -35 -54 -90 -117 -135 -156 -178 -180 -146 -141 -125 -99 -90 -73 -60 -52 -26 -23 -25 -13 -19 -11 -14 -9 -2 -1 -1 -37 -10 -27
Wind_Speed
23 24 23 19 17 18 17 19 15 8 8 6 7 7 9 9 11 14 31 37 34 33 35 34 34 33 32 29 26 25 24 21 11 9 6 4 4 4 4 5 5 5 5 6 10 9 18 22 18
22 23 20 17 12 17 16 6 13 10 9 5 5 5 7 8 12 19 24 35 33 32 35 33 33 31 29 28 26 24 24 17 9 7 4 5 4 4 4 4 5 5 6 6 12 20 22 22 22
21 22 16 15 14 18 15 16 14 11 6 7 7 6 8 9 17 22 31 32 33 35 32 29 30 29 27 26 25 25 21 12 3 4 6 4 5 6 5 5 5 5 6 6 17 23 22 21 21
20 20 16 13 14 17 14 5 11 9 8 9 7 9 9 13 22 21 31 34 32 31 30 28 29 28 26 26 26 24 27 24 13 15 15 13 12 8 5 5 5 5 9 3 25 24 23 22 22
23 18 18 6 13 14 14 9 9 8 9 8 9 9 10 20 19 30 31 29 32 26 26 28 28 26 25 26 25 28 28 19 16 18 18 18 15 13 11 12 13 15 17 16 17 18 19 21 21
20 16 14 10 14 13 11 9 9 9 9 10 11 10 7 16 28 30 30 32 28 30 27 25 26 24 24 27 28 28 26 19 19 21 20 18 17 17 16 15 16 16 16 16 16 17 18 21 22
24 18 14 11 13 13 9 9 12 11 11 10 11 13 13 18 29 29 28 27 28 29 26 26 26 24 25 27 30 27 25 22 23 22 21 20 19 17 17 18 17 17 18 18 17 17 19 21 21
21 20 18 13 9 13 10 12 11 11 12 11 14 13 20 21 30 30 28 29 30 30 24 27 26 28 29 30 29 26 24 23 23 22 21 21 21 21 21 21 20 18 17 18 19 18 19 20 21
22 21 16 9 12 11 12 13 13 12 14 10 11 14 19 25 29 29 26 28 34 27 29 29 28 29 29 31 29 26 24 23 22 22 22 23 20 21 24 20 20 19 17 17 17 18 19 20 20
26 16 18 11 10 11 11 15 13 15 15 13 15 16 20 25 26 24 25 28 32 27 31 30 28 29 30 30 29 27 25 25 23 23 21 20 19 20 18 22 21 19 17 18 18 13 12 15 18
28 14 22 9 12 11 12 13 14 13 15 16 16 19 21 22 26 21 25 27 30 28 30 29 27 29 31 30 29 27 26 25 21 19 18 16 16 18 19 20 20 18 17 15 8 17 14 5 7
31 12 22 9 10 12 11 14 13 15 14 14 16 18 21 21 23 19 24 28 31 28 29 30 27 31 32 30 29 28 26 24 22 22 18 16 15 15 18 17 18 16 15 15 18 16 22 6 9
33 28 14 17 12 13 14 7 10 14 16 17 16 18 19 20 20 20 22 24 27 29 29 29 29 34 33 29 29 27 25 24 23 21 21 18 17 16 10 16 15 17 18 8 15 20 17 18 15
12 27 21 18 15 9 7 6 10 12 15 17 19 19 19 20 19 18 18 19 27 28 28 26 31 34 33 32 28 27 27 25 23 22 21 20 18 18 17 16 16 16 18 17 4 14 18 11 17
16 20 15 16 26 13 10 3 8 13 16 16 17 19 19 20 18 17 19 17 24 25 28 26 34 33 34 33 31 29 27 26 24 23 21 21 21 19 15 16 11 13 17 13 14 13 12 16 17
22 36 26 8 8 10 7 3 4 8 14 15 15 17 19 18 19 18 19 16 20 23 26 34 36 33 34 34 32 30 28 27 25 23 16 22 22 20 17 15 14 16 15 14 12 13 14 16 15
13 15 28 9 10 9 6 3 5 7 10 13 15 15 17 18 20 20 21 20 21 25 24 34 36 34 33 34 32 31 29 28 26 25 22 17 20 18 17 15 14 14 14 16 14 13 13 16 14
14 15 15 14 9 9 6 6 2 5 7 11 14 16 17 19 20 22 28 28 23 26 23 34 35 37 35 34 33 31 30 28 28 26 24 13 19 18 17 15 14 13 13 15 16 12 14 12 16
39 26 28 14 10 9 12 10 7 1 2 7 13 17 19 19 18 23 28 25 31 26 26 34 37 36 35 36 34 33 30 24 24 25 23 19 21 19 18 16 13 13 13 15 14 13 14 14 16
43 41 27 33 24 16 9 25 10 6 4 7 13 16 17 20 17 23 25 29 31 30 29 31 37 37 39 38 36 33 31 27 23 23 20 23 23 21 19 17 13 13 14 15 14 14 14 17 19
24 24 28 27 18 17 24 40 23 8 5 5 13 15 16 21 20 19 23 31 33 30 30 33 35 36 34 37 35 34 32 31 23 28 26 25 25 22 19 16 16 13 16 15 16 16 16 16 18
23 20 33 28 33 28 18 42 28 13 9 7 14 17 16 20 21 18 22 26 30 30 22 21 21 40 37 39 36 35 34 31 29 26 26 24 22 21 18 17 15 16 17 14 15 16 16 16 19
45 32 25 36 40 40 37 34 26 20 27 19 20 17 16 18 20 18 22 21 25 24 25 25 22 39 39 36 39 29 34 31 30 28 24 24 15 19 17 14 16 17 19 13 14 17 17 17 17
33 29 33 24 34 53 36 25 29 24 14 17 18 18 17 16 18 18 18 16 17 20 25 25 26 35 39 30 37 37 28 35 30 22 19 19 21 14 18 15 13 16 19 18 14 16 17 18 18
21 17 14 19 30 42 20 24 29 15 17 15 15 18 16 12 17 15 17 20 20 24 27 24 24 29 29 30 30 37 29 28 35 12 19 12 16 17 13 15 12 15 15 18 16 14 17 18 19
20 22 16 16 23 37 30 52 46 40 29 15 13 14 13 13 16 17 24 21 20 23 26 26 23 25 27 29 29 27 27 24 25 16 12 14 12 13 6 10 11 15 14 16 16 14 16 17 18
24 30 33 31 11 38 26 30 40 40 22 20 21 16 17 16 15 19 23 23 21 22 23 26 23 26 28 29 27 28 26 26 19 17 13 6 12 13 3 6 8 12 15 14 13 17 13 17 16
46 26 33 44 39 28 36 29 12 15 25 21 19 19 26 16 16 15 19 23 21 24 22 24 28 28 29 29 28 25 23 22 19 13 12 12 8 9 3 6 7 10 12 14 14 12 12 10 12
38 40 38 42 44 37 32 31 31 12 10 17 19 24 15 16 15 14 16 18 20 18 22 26 29 27 25 26 25 25 24 22 20 19 15 14 11 9 13 6 7 8 11 12 13 14 9 9 10
36 38 27 39 40 43 32 18 14 10 18 8 15 15 17 15 12 13 14 15 16 20 23 27 28 28 27 23 23 23 22 25 26 26 23 18 17 15 11 11 9 9 10 12 13 14 15 9 10
Wind_Direction
119 130 145 162 123 133 148 111 85 337 325 297 279 325 27 337 279 62 115 128 125 130 144 133 134 127 120 108 97 91 86 73 41 24 3 339 328 312 304 327 318 291 278 255 192 210 35 101 20
117 132 159 172 180 62 46 308 21 5 33 347 328 10 337 322 12 87 107 125 127 124 138 127 127 121 111 105 98 91 87 63 31 13 324 331 317 257 271 292 304 309 310 282 1 52 78 82 74
118 155 178 208 191 11 40 69 44 35 10 296 331 306 277 292 81 97 118 123 124 133 136 116 121 117 105 103 97 93 79 50 326 249 221 286 224 216 244 295 295 306 309 297 25 68 74 76 66
115 139 133 269 212 39 40 291 36 9 290 307 21 342 320 56 102 103 119 122 124 127 122 117 121 116 106 104 101 95 105 156 190 180 179 181 183 211 244 241 239 229 185 273 72 68 60 56 69
180 187 218 140 6 15 33 19 352 311 304 301 353 357 46 88 96 116 121 122 124 114 113 119 120 113 107 107 103 117 147 177 180 171 167 163 171 178 184 175 171 155 146 147 140 131 118 102 94
184 189 299 292 20 16 5 9 10 321 317 316 23 48 43 90 116 120 121 122 118 126 117 113 114 109 108 113 118 149 158 177 173 164 161 166 164 162 161 163 160 156 154 148 142 134 125 106 95
211 262 168 350 28 15 350 323 313 20 8 9 48 60 80 105 120 121 119 118 122 123 116 118 117 112 113 119 145 157 164 167 160 157 161 161 160 161 160 156 157 153 144 136 134 129 117 103 98
213 241 249 346 314 35 2 351 351 21 12 47 75 68 108 115 124 123 121 122 129 129 117 123 119 125 129 138 157 168 172 165 160 162 164 158 153 148 144 144 148 150 145 135 121 123 121 113 102
213 228 268 313 341 26 45 28 8 27 63 38 340 86 108 119 125 125 121 124 141 127 130 132 129 130 134 150 161 171 172 169 169 167 166 146 164 150 125 143 143 142 144 136 128 129 122 120 116
200 306 242 341 1 28 31 32 49 72 74 53 64 87 111 122 127 125 127 130 144 130 138 138 133 136 143 151 166 170 171 169 170 169 173 134 164 149 162 120 130 133 141 138 131 156 156 141 125
203 290 207 0 328 285 60 45 49 58 90 90 94 109 121 125 133 128 131 134 143 136 142 139 134 141 152 156 171 174 172 175 185 190 196 184 186 160 149 128 124 121 129 150 323 140 123 246 218
221 287 218 12 344 294 42 69 53 76 69 89 100 117 126 132 137 133 137 143 150 145 145 145 138 153 164 177 176 175 175 182 188 177 195 196 201 186 145 152 126 132 119 120 71 109 28 295 189
209 239 286 282 297 290 271 1 39 60 78 88 105 122 131 136 137 139 138 140 147 151 149 149 147 170 179 192 180 187 188 183 178 185 174 201 161 193 299 163 127 91 64 149 92 41 79 68 98
280 251 272 274 280 308 334 354 89 89 95 101 108 126 136 141 142 143 145 143 150 152 152 147 159 170 185 188 196 193 195 179 196 174 159 185 199 188 174 160 117 92 34 55 214 88 52 235 56
199 275 273 272 247 290 297 48 116 107 114 114 117 124 137 147 147 149 149 149 151 151 154 152 167 168 178 184 195 192 190 193 175 193 208 187 190 188 217 157 191 126 32 121 106 122 145 109 70
185 214 218 204 253 272 296 138 141 119 127 130 128 130 136 148 153 152 153 154 153 152 155 169 178 168 175 185 190 194 196 192 190 177 134 171 180 200 156 146 125 5 79 136 120 117 125 90 93
198 198 191 228 213 259 254 320 134 131 130 137 142 139 141 144 154 156 157 157 156 158 156 171 177 175 173 188 192 192 195 199 194 189 171 140 163 156 162 141 253 131 130 101 129 141 110 59 82
232 202 244 193 206 226 211 186 35 135 142 143 148 149 151 153 158 159 163 163 160 162 160 173 178 189 180 185 198 195 196 189 200 191 179 117 158 155 161 158 105 138 132 90 61 138 95 132 45
240 254 251 234 239 209 196 187 241 301 218 155 157 159 160 159 156 159 165 162 167 164 165 173 181 181 181 188 190 197 188 172 176 185 175 159 170 159 162 168 115 137 104 98 112 115 112 131 82
240 243 252 246 254 259 241 191 263 263 187 176 165 164 164 160 158 161 164 168 170 169 169 171 182 182 191 197 206 199 197 184 172 174 165 177 177 174 173 166 138 136 123 100 113 137 153 116 127
211 240 252 254 251 255 262 236 210 243 254 198 174 168 169 168 164 163 165 172 174 172 170 174 177 181 177 193 195 212 211 219 177 192 186 183 186 180 178 159 162 122 169 107 110 124 157 126 132
204 224 251 255 251 254 240 248 199 252 242 202 177 173 171 172 170 167 167 170 173 174 172 172 172 188 184 190 192 191 192 188 190 184 185 178 172 177 166 161 150 149 149 88 111 131 157 154 122
215 248 244 250 251 253 254 258 260 196 194 185 180 178 177 175 175 174 171 172 173 172 172 172 174 184 188 183 198 177 193 192 196 191 179 177 152 169 166 149 158 154 163 115 108 128 144 128 161
243 249 249 251 253 234 252 255 204 200 195 190 184 185 180 177 179 180 177 179 176 175 173 172 173 178 185 176 187 194 179 200 189 175 167 169 177 158 172 164 150 160 163 158 121 134 133 156 145
241 227 227 204 201 212 235 243 207 218 205 202 197 189 187 184 181 192 185 175 173 172 173 174 176 178 178 179 180 192 182 182 207 165 172 161 168 172 161 165 154 161 157 160 150 127 142 146 154
207 193 210 214 198 222 200 225 216 210 263 231 213 214 200 186 179 189 177 178 178 173 172 174 177 179 180 182 183 183 183 181 183 176 172 173 168 169 150 161 161 166 159 161 155 149 153 151 152
234 199 188 231 224 238 198 202 222 235 237 252 254 209 190 179 179 181 177 180 180 178 177 175 179 181 183 184 184 186 187 188 186 186 190 201 178 174 175 158 160 168 170 163 160 167 151 160 152
234 206 236 235 231 216 237 255 216 248 261 213 209 244 187 186 178 187 184 179 182 180 181 179 179 180 183 184 186 188 190 192 195 203 202 198 201 187 268 181 174 173 175 174 171 168 165 155 155
226 236 236 237 225 236 245 252 251 239 246 245 239 194 200 182 179 189 193 189 185 189 183 181 181 181 182 184 188 190 193 194 198 201 207 209 212 212 192 199 188 187 185 184 183 183 177 174 169
235 235 226 236 195 215 238 282 291 274 269 222 182 233 212 214 198 188 194 222 209 189 185 184 184 186 188 188 191 192 194 194 195 198 199 202 204 205 208 206 207 201 199 197 197 192 189 193 185